Rexburg, ID

2:21 AM MDT on April 23, 2017 (GMT -0600)
Rexburg-Madison County

Weather History for KRXE - February, 2013

Change the Weather History Date:

Tuesday, February 12, 2013

  Actual Average Record
Temperature  
Mean Temperature 19 °F 21 °F  
Max Temperature 26 °F 31 °F 50 °F (2015)
Min Temperature 11 °F 11 °F -8 °F (2004)
Degree Days  
Heating Degree Days 46 44  
Month to date heating degree days 492 536  
Since 1 July heating degree days 4978 5313  
Cooling Degree Days 0 0  
Month to date cooling degree days 0 0  
Year to date cooling degree days 0 0  
Moisture  
Dew Point 14 °F    
Average Humidity 78    
Maximum Humidity 88    
Minimum Humidity 68    
Precipitation  
Precipitation T in 0.03 in 0.26 in (1992)
Month to date precipitation T 0.36  
Year to date precipitation 1.13 1.10  
Sea Level Pressure  
Sea Level Pressure 30.38 in    
Wind  
Wind Speed 3 mph (West)    
Max Wind Speed 8 mph    
Max Gust Speed 9 mph    
Visibility 10 miles    
Events Snow    
T = Trace of Precipitation, MM = Missing Value Source: NWS Daily Summary

Daily Weather History Graph

Daily Weather History Graph

Search for Another Location

Airport or City:

Trip Planner

Search our weather history database for the weather conditions in past years. The results will help you decide how hot, cold, wet, or windy it might be!

Date:

Astronomy

Feb. 12, 2013 Rise Set
Actual Time 7:29 AM MST 5:53 PM MST
Civil Twilight 7:00 AM MST 6:23 PM MST
Nautical Twilight 6:26 AM MST 6:57 PM MST
Astronomical Twilight 5:53 AM MST 7:30 PM MST
Moon 8:21 AM MST (2/12) 9:06 PM MST (2/12)
Length of Visible Light 11h 23m
Length of Day
10h 23m
Waxing Crescent, 8% of the Moon is Illuminated
Feb 12
Waxing Crescent
Feb 17
First Quarter
Feb 25
Full
Mar 4
Last Quarter
Mar 11
New

Hourly Weather History & Observations

Time (MST) Temp. Windchill Dew Point Humidity Pressure Visibility Wind Dir Wind Speed Gust Speed Precip Events Conditions
12:53 AM 12.0 °F 5.9 °F 6.1 °F 77% 30.38 in 10.0 mi NE 3.5 mph - N/A   Overcast
1:53 AM 14.0 °F - 8.1 °F 77% 30.35 in 5.0 mi Calm Calm - N/A   Haze
2:09 AM 15.8 °F 10.2 °F 8.6 °F 73% 30.18 in 10.0 mi NNE 3.5 mph - N/A   Overcast
2:53 AM 16.0 °F - 10.0 °F 77% 30.35 in 10.0 mi Calm Calm - N/A   Overcast
3:53 AM 17.1 °F - 10.9 °F 77% 30.35 in 10.0 mi Calm Calm - N/A   Overcast
4:53 AM 17.1 °F - 10.9 °F 77% 30.35 in 10.0 mi Calm Calm - N/A   Overcast
5:53 AM 15.1 °F 9.4 °F 10.0 °F 80% 30.40 in 10.0 mi West 3.5 mph - N/A   Overcast
6:53 AM 15.1 °F - 10.0 °F 80% 30.43 in 10.0 mi Calm Calm - N/A   Overcast
7:53 AM 14.0 °F - 9.0 °F 80% 30.46 in 10.0 mi Calm Calm - N/A   Overcast
8:53 AM 15.1 °F 9.4 °F 10.0 °F 80% 30.47 in 10.0 mi WSW 3.5 mph - N/A   Overcast
9:53 AM 17.1 °F - 12.9 °F 84% 30.48 in 6.0 mi Calm Calm - 0.00 in Snow Light Snow
10:53 AM 19.0 °F - 12.9 °F 77% 30.48 in 10.0 mi Calm Calm - 0.00 in   Overcast
11:53 AM 21.0 °F 13.4 °F 14.0 °F 74% 30.45 in 10.0 mi SW 5.8 mph - N/A   Overcast
12:53 PM 23.0 °F 14.7 °F 14.0 °F 68% 30.43 in 10.0 mi WSW 6.9 mph - N/A   Overcast
1:53 PM 24.1 °F 18.2 °F 15.1 °F 69% 30.41 in 10.0 mi WSW 4.6 mph - N/A   Overcast
2:53 PM 24.1 °F 19.7 °F 15.1 °F 69% 30.40 in 10.0 mi WSW 3.5 mph - N/A   Overcast
3:53 PM 25.0 °F 20.7 °F 16.0 °F 69% 30.38 in 10.0 mi Variable 3.5 mph - N/A   Overcast
4:00 PM 24.8 °F - 17.6 °F 74% 30.24 in 10.0 mi Calm Calm - N/A   Overcast
4:53 PM 25.0 °F - 16.0 °F 69% 30.38 in 10.0 mi Calm Calm - N/A   Overcast
5:53 PM 26.1 °F - 17.1 °F 69% 30.40 in 10.0 mi Calm Calm - N/A   Overcast
6:53 PM 25.0 °F 19.3 °F 18.0 °F 75% 30.42 in 10.0 mi ENE 4.6 mph - 0.00 in   Overcast
7:53 PM 24.1 °F 19.7 °F 18.0 °F 77% 30.41 in 10.0 mi ENE 3.5 mph - N/A   Overcast
8:53 PM 24.1 °F 19.7 °F 19.0 °F 81% 30.42 in 10.0 mi NNE 3.5 mph - N/A   Overcast
9:53 PM 25.0 °F 20.7 °F 19.9 °F 81% 30.40 in 10.0 mi SSW 3.5 mph - N/A   Overcast
10:49 PM 24.8 °F 16.9 °F 21.2 °F 86% 30.25 in 10.0 mi WSW 6.9 mph - N/A   Overcast
10:53 PM 25.0 °F 18.1 °F 21.0 °F 85% 30.38 in 10.0 mi WSW 5.8 mph - N/A   Overcast
11:48 PM 24.8 °F 19.1 °F 21.2 °F 86% 30.25 in 9.0 mi West 4.6 mph - N/A   Overcast
11:53 PM 25.0 °F 19.3 °F 21.0 °F 85% 30.38 in 9.0 mi WNW 4.6 mph - N/A   Overcast